Regional Weather Roundup
Issued by NWS

Home | Current Version | Previous Version | Text Only | Print | Product List | Glossary Off
Versions: 1 2 3 4 5 6 7 8 9 10 11 12 13 14 15 16 17 18 19 20 21 22 23 24 25 26 27 28 29 30 31 32 33 34 35 36 37 38 39 40 41 42 43 44 45 46 47 48 49 50

000
ASUS43 KIND 261759
RWRIN

WEATHER ROUNDUP FOR INDIANA
NATIONAL WEATHER SERVICE INDIANAPOLIS IN
200 PM EDT THU MAR 26 2015

NOTE: "FAIR" INDICATES FEW OR NO CLOUDS BELOW 12,000 FEET WITH NO
SIGNIFICANT WEATHER AND/OR OBSTRUCTIONS TO VISIBILITY.

* - STATION DOES NOT REPORT WEATHER SUCH AS PRECIPITATION OR FOG.

+ - STATION NOT QUALITY CONTROLLED BY THE NATIONAL WEATHER SERVICE.
    USE DATA WITH CAUTION...ESPECIALLY DEWPOINT AND RELATIVE
    HUMIDITY OBSERVATIONS.

INZ001>003-010>013-019-020-261900-
NORTHWEST INDIANA

CITY           SKY/WX    TMP DP  RH WIND       PRES   REMARKS
GARY /AIRPORT/ PTSUNNY   41  21  45 N9        29.97F

$$

LMZ046-743>745-261900-
SOUTHERN LAKE MICHIGAN

STATION/POSITION TIME  TEMP WIND        PRES
                       AIR  DIR/SP/G
                 (UTC) (F)  (DEG/KT/KT) (MB)
BURNS HARBOR     1700   35   20/  6/  8 1015.6F
MICHIGAN CITY    1700   35  280/ 12/ 13   N/A

$$

INZ004-005-014>016-021>024-261900-
NORTH CENTRAL INDIANA

CITY           SKY/WX    TMP DP  RH WIND       PRES   REMARKS
GOSHEN         PTSUNNY   44  27  51 NW16      29.91F
6HR MIN TEMP:  36; 6HR MAX TEMP:  44;

SOUTH BEND     PTSUNNY   39  24  55 NW14G23   29.94F
6HR MIN TEMP:  35; 6HR MAX TEMP:  41;


$$

INZ006>009-017-018-025>027-261900-
NORTHEAST INDIANA

CITY           SKY/WX    TMP DP  RH WIND       PRES   REMARKS
ANGOLA *+      CLOUDY    39  27  60 NW12      29.88F
FORT WAYNE     CLOUDY    40  31  70 NW12      29.91S
6HR MIN TEMP:  35; 6HR MAX TEMP:  40; 6HR PCP:  0.07;


$$

INZ028-029-035-036-043>045-051>053-261900-
WEST CENTRAL INDIANA

CITY           SKY/WX    TMP DP  RH WIND       PRES   REMARKS
GREENCASTLE +  CLOUDY    37  32  81 NW9       29.95F
LAFAYETTE      CLOUDY    42  31  64 NW10      29.96F
6HR MIN TEMP:  33; 6HR MAX TEMP:  42; 6HR PCP: TRACE;

TERRE HAUTE    CLOUDY    42  33  70 N15       29.97F
6HR MIN TEMP:  36; 6HR MAX TEMP:  42; 6HR PCP:  0.06;


$$

INZ030>032-037>040-046>048-054>057-064-065-261900-
CENTRAL INDIANA

CITY           SKY/WX    TMP DP  RH WIND       PRES   REMARKS
COLUMBUS       CLOUDY    41  37  87 NW12      29.93R
GREENWOOD *+   CLOUDY    39  32  75 N10       29.93F
INDIANAPOLIS   CLOUDY    41  33  73 NW14      29.92F
6HR MIN TEMP:  37; 6HR MAX TEMP:  41; 6HR PCP:  0.06;

-EAGLE CREEK   CLOUDY    40  33  76 NW12      29.93F
6HR MIN TEMP:  37; 6HR MAX TEMP:  40; 6HR PCP:  0.05;

KOKOMO *+        N/A     39  30  70 NW13      29.93S
6HR MIN TEMP:  36; 6HR MAX TEMP:  39; 6HR PCP:  0.05;

MT COMFORT *+  CLOUDY    39  28  65 NW10      29.93S
SHELBYVILLE    CLOUDY    41  35  79 NW14      29.92S
6HR MIN TEMP:  40; 6HR MAX TEMP:  43; 6HR PCP:  0.11;


$$

INZ033-034-041-042-049-050-058-059-261900-
EAST CENTRAL INDIANA

CITY           SKY/WX    TMP DP  RH WIND       PRES   REMARKS
MUNCIE         CLOUDY    40  35  83 NW13      29.91S
6HR MIN TEMP:  37; 6HR MAX TEMP:  40; 6HR PCP:  0.09;


$$

INZ060-061-067>069-081>083-085>088-261900-
SOUTHWEST INDIANA

CITY           SKY/WX    TMP DP  RH WIND       PRES   REMARKS
EVANSVILLE     CLOUDY    42  37  82 NW9       29.99S
6HR MIN TEMP:  41; 6HR MAX TEMP:  46; 6HR PCP:  0.02;

HUNTINGBURG *+ CLOUDY    41  36  81 N12G17    29.97R
6HR MIN TEMP:  41; 6HR MAX TEMP:  46;


$$

INZ062-063-066-070>080-084-089>092-261900-
SOUTH CENTRAL AND SOUTHEAST INDIANA

CITY           SKY/WX    TMP DP  RH WIND       PRES   REMARKS
BLOOMINGTON    CLOUDY    39  36  89 NW6       29.94S
6HR MIN TEMP:  39; 6HR MAX TEMP:  41; 6HR PCP:  0.12;

SEYMOUR +      CLOUDY    46  41  81 N10       29.91S

$$



USA.gov is the U.S. government's official web portal to all federal, state and local government web resources and services.